Theta_e
310 310 312 313 313 316 319 323 324 324 324 324 324 325 326 326 327 326 327 328 330 330 329 328 328 328 328 330 331 330 332 334 336 337 340 341 341 341 341 339 334 333 333 334
311 310 312 314 314 315 317 317 318 322 324 324 324 325 326 326 326 326 327 328 329 330 330 328 328 328 330 331 331 331 333 335 338 340 342 340 340 342 340 336 334 333 333 334
312 312 313 314 315 316 315 316 316 317 319 320 320 321 322 323 325 327 329 329 329 329 329 328 327 328 331 332 331 332 334 338 340 341 340 340 338 336 334 334 333 333 334 334
307 310 314 313 314 316 316 316 317 318 318 319 320 320 321 321 323 324 326 327 329 329 329 329 328 330 333 332 332 332 332 336 338 339 338 336 336 336 336 335 335 334 333 334
307 308 310 313 314 315 316 318 317 318 317 317 319 319 321 323 325 325 325 327 328 328 328 327 328 332 334 333 333 331 333 336 339 336 336 337 336 334 334 333 332 332 331 332
308 309 308 308 310 315 315 317 317 317 317 317 318 319 320 320 321 324 324 327 327 327 326 327 333 335 335 336 333 334 334 335 337 337 335 335 334 334 333 332 332 332 332 330
310 310 309 309 309 310 312 313 314 318 318 318 318 320 321 321 322 324 324 325 327 328 329 335 337 337 337 336 336 335 333 336 337 335 335 335 333 333 332 332 332 331 329 328
315 316 314 314 309 309 310 313 314 317 319 318 319 321 320 322 324 324 325 325 328 327 334 337 338 337 337 337 337 334 336 337 336 335 335 335 334 330 327 330 332 331 328 327
314 313 312 310 310 310 310 310 315 315 317 318 319 320 320 320 321 323 324 327 329 335 337 338 338 338 338 338 337 334 336 335 333 334 333 330 327 334 334 332 331 329 328 326
311 312 310 309 311 315 315 312 315 315 317 319 321 320 320 321 323 324 326 325 334 338 339 339 338 338 338 338 337 336 336 335 336 334 333 331 330 332 331 331 330 328 328 330
309 311 312 311 312 315 315 311 311 314 315 318 321 320 320 322 328 324 325 328 337 338 338 338 338 338 338 337 337 337 337 336 335 334 331 331 329 330 331 330 329 328 329 328
312 313 315 314 313 314 315 312 311 314 317 318 320 320 321 323 329 325 325 329 337 337 338 337 338 338 337 337 337 337 337 335 334 333 331 330 329 330 332 330 329 328 329 328
311 312 315 314 314 314 317 319 315 315 316 317 318 321 320 322 325 327 324 334 337 337 337 338 338 337 337 337 337 336 336 333 332 332 331 329 329 331 331 330 330 328 329 329
311 311 313 314 315 315 318 317 318 318 318 318 320 320 321 324 326 327 329 336 336 337 337 337 337 337 336 337 337 336 333 333 332 331 331 329 329 330 330 331 331 329 329 329
311 312 312 313 315 314 314 314 316 316 319 319 319 321 320 324 332 331 333 335 336 336 336 336 337 337 336 337 335 332 332 332 331 331 330 330 330 330 330 330 330 329 330 330
312 312 313 316 316 315 314 314 315 315 317 320 320 321 323 331 336 335 335 335 336 336 336 336 336 336 337 336 333 331 331 331 330 330 331 331 331 331 331 331 330 329 329 330
312 313 316 317 316 315 315 314 313 315 316 319 321 323 327 329 332 333 335 335 335 336 336 336 336 336 336 334 331 329 330 330 328 330 332 331 331 331 331 330 329 329 329 330
309 310 315 320 317 317 313 314 318 321 319 322 323 326 327 330 331 331 335 335 335 336 336 336 336 336 335 332 329 329 330 329 329 330 333 331 330 330 331 331 330 328 327 328
310 311 316 319 322 319 317 322 323 326 329 328 327 327 329 331 330 329 331 334 335 336 335 335 336 335 334 330 329 329 329 328 329 332 333 332 330 330 331 331 331 327 327 327
310 312 315 317 320 323 321 316 316 321 330 328 328 329 330 329 330 329 330 330 333 335 335 335 335 335 333 329 328 329 328 327 329 332 332 332 330 330 331 330 330 329 329 327
314 315 315 317 321 319 313 316 317 330 329 327 327 328 328 328 328 328 329 330 332 335 334 334 335 335 333 329 328 328 328 327 328 330 332 333 330 329 332 330 330 330 329 330
314 318 319 319 320 320 314 316 325 323 322 323 325 326 328 329 330 330 330 330 332 336 335 335 335 334 333 330 328 328 328 326 328 328 332 332 332 331 331 330 329 330 329 328
317 315 313 311 315 315 312 315 315 317 321 320 321 323 325 326 329 332 331 331 332 332 336 337 335 335 333 330 328 327 328 326 328 327 331 331 331 330 330 330 329 328 329 328
313 313 317 314 310 312 314 314 314 316 319 318 319 320 322 325 327 329 332 333 333 332 330 335 337 335 333 331 328 326 328 325 328 327 330 330 330 331 327 330 328 328 330 329
313 314 314 315 314 313 313 313 314 316 316 318 318 318 320 323 325 326 328 333 335 335 333 334 337 336 334 332 329 327 328 325 327 326 328 330 329 330 326 328 329 330 331 331
312 313 313 314 312 312 311 312 313 315 315 315 317 318 319 322 324 324 326 331 333 335 335 334 338 336 335 334 331 327 329 325 327 327 327 328 328 330 325 331 332 333 330 331
Wind_Speed
16 9 20 33 20 15 16 25 20 16 19 17 23 25 27 21 20 22 30 26 28 22 24 23 21 31 25 21 18 22 24 25 25 28 28 30 27 27 24 23 19 18 19 18
9 23 24 15 17 21 24 24 21 14 13 16 21 18 23 21 17 32 33 34 36 31 34 25 27 22 22 22 21 20 21 23 25 25 22 18 19 23 20 18 20 19 19 20
15 13 17 19 20 21 26 26 17 22 14 23 16 16 18 17 14 21 23 34 34 26 26 29 30 23 24 21 22 16 15 22 21 19 15 13 14 12 12 14 18 20 21 21
15 17 21 20 26 20 24 13 22 21 14 21 6 14 22 17 20 15 26 30 32 32 33 29 27 22 24 22 16 13 15 20 20 16 15 17 19 15 17 18 15 16 17 19
23 13 9 19 21 18 22 13 18 16 18 17 17 6 28 9 12 9 10 26 27 20 24 26 25 22 25 19 14 13 15 17 18 16 21 16 21 16 13 12 12 11 13 13
19 18 18 16 17 18 17 17 21 16 12 13 16 13 32 18 19 6 9 29 24 25 28 24 17 26 22 17 14 14 17 20 22 18 18 16 17 9 14 13 11 10 12 13
14 18 20 20 19 17 15 14 7 8 11 17 11 10 22 5 13 12 15 22 22 19 14 23 30 28 24 19 17 18 24 26 22 21 15 14 17 15 14 13 12 12 11 7
3 7 8 9 20 14 13 13 10 16 13 13 11 12 10 16 18 27 33 33 20 28 18 30 33 30 25 21 20 25 26 22 22 22 17 16 14 12 10 8 8 9 6 4
3 7 11 22 17 14 21 19 14 13 20 6 8 18 24 23 24 19 16 17 15 15 29 36 32 28 26 23 24 27 23 20 23 16 12 9 9 5 6 4 5 4 3 4
1 9 9 17 14 15 14 11 6 11 18 15 10 17 10 17 15 18 9 10 16 28 37 34 30 29 26 23 24 22 19 20 18 13 10 9 6 6 5 6 4 4 7 8
3 6 12 8 4 9 8 17 13 6 12 11 10 12 15 10 10 9 10 18 32 38 39 36 33 31 27 24 24 21 20 19 18 13 10 10 7 8 7 5 4 9 8 5
4 2 6 13 18 16 16 19 16 9 8 10 10 13 9 11 1 8 13 24 36 41 40 37 35 32 28 26 24 23 22 19 17 14 11 10 9 7 4 2 4 13 13 7
2 2 5 6 7 9 7 8 9 9 14 17 17 11 11 13 7 8 10 30 35 39 39 37 36 33 28 27 25 23 22 18 16 16 13 10 7 6 5 3 5 15 16 11
5 4 7 7 15 5 10 18 16 9 11 14 16 17 13 13 10 7 17 36 38 40 40 38 35 33 29 28 24 23 19 18 17 16 14 10 8 5 5 6 7 15 14 12
3 5 7 15 19 12 14 19 19 14 17 9 16 16 16 13 5 8 29 35 35 36 37 38 37 34 31 28 25 23 20 19 17 18 12 10 4 8 6 7 8 15 11 13
6 4 11 16 17 13 12 21 19 18 22 16 19 17 9 4 19 15 22 29 31 34 36 37 37 34 33 29 27 23 23 20 18 18 14 9 8 10 9 7 9 12 14 16
8 5 5 6 5 8 7 18 17 14 19 19 18 7 8 13 14 0 22 29 31 32 37 38 38 36 34 30 28 24 25 21 18 17 14 9 9 11 9 5 8 11 13 13
14 11 2 4 1 5 3 7 15 15 22 20 21 16 16 11 16 25 12 30 32 33 38 37 37 36 33 29 26 25 25 21 20 17 14 11 11 11 12 10 7 9 9 8
16 8 2 3 3 8 8 4 9 11 3 16 14 14 11 4 20 14 21 15 33 36 38 37 35 34 33 30 28 26 25 21 21 20 15 12 12 13 12 10 7 8 9 10
12 9 4 3 2 3 3 17 29 23 4 15 12 21 6 10 7 3 17 18 13 32 39 37 35 34 32 29 28 27 25 21 22 21 16 14 13 10 10 10 9 10 9 10
2 3 5 5 3 3 7 22 39 3 3 12 14 18 12 4 4 9 13 18 17 22 39 37 36 35 32 30 28 27 25 24 22 19 18 18 17 11 10 9 10 9 8 11
3 4 3 3 2 4 22 25 5 7 18 7 17 20 12 12 16 14 15 18 12 19 33 37 37 35 32 30 28 27 26 24 23 19 19 22 19 13 10 9 13 10 7 9
2 3 2 4 4 10 17 21 30 26 15 25 27 26 21 19 18 15 13 16 13 6 29 22 35 34 32 30 29 29 26 26 24 24 23 21 16 11 13 13 13 10 8 6
3 12 1 5 6 11 11 24 28 26 26 29 27 27 29 24 22 23 21 15 10 7 14 10 34 34 34 32 28 27 28 26 25 27 26 24 17 16 11 13 11 11 10 9
3 8 9 3 4 7 14 28 33 35 32 27 26 27 29 28 22 22 23 18 16 7 6 13 36 37 35 32 28 29 28 28 27 29 27 24 18 18 14 15 15 12 7 6
4 5 4 4 17 11 17 22 25 22 27 28 26 28 29 27 22 22 21 18 19 12 3 3 36 37 35 31 28 30 28 30 29 31 29 26 21 20 19 18 16 16 11 10
Wind_Direction
248 213 220 220 219 232 251 236 248 249 241 260 254 257 267 262 255 264 276 272 261 241 251 263 284 264 251 255 248 239 237 233 231 221 217 205 217 217 213 221 225 239 249 250
234 231 230 237 229 231 246 261 265 276 248 247 251 259 261 253 253 252 258 260 265 264 255 253 257 256 270 255 244 235 236 236 225 219 214 219 211 215 229 229 222 238 237 244
232 244 222 236 234 233 231 241 252 258 283 282 288 289 280 281 270 269 264 252 258 250 242 241 252 255 253 232 232 230 230 211 208 211 207 196 190 194 202 206 221 229 236 249
259 254 241 246 228 230 240 236 238 254 254 254 192 267 264 267 265 262 266 273 269 251 253 255 247 231 229 217 225 229 212 200 207 203 189 167 186 195 206 211 211 223 246 252
241 279 256 242 250 234 250 238 245 247 242 262 258 277 265 214 248 244 257 254 258 255 249 254 247 224 204 209 212 208 189 180 183 172 170 184 186 202 220 218 215 233 260 276
253 247 260 264 274 246 263 241 248 258 261 263 244 224 267 245 249 245 253 262 262 265 259 253 206 188 187 191 196 189 174 170 165 173 181 195 196 193 188 198 215 236 253 276
248 246 244 253 268 275 261 232 249 243 232 237 220 242 235 242 236 219 244 248 263 264 247 175 168 174 177 181 182 172 162 160 166 178 176 181 189 205 199 209 235 261 278 270
272 295 261 256 235 254 257 235 218 214 224 247 249 242 231 235 259 243 244 254 267 248 178 166 167 169 172 174 170 161 162 162 172 180 179 196 203 213 215 229 261 283 269 267
354 263 307 306 299 240 251 251 248 257 278 241 235 244 262 260 260 257 246 237 198 159 156 156 162 165 168 167 164 162 164 165 171 178 179 187 183 181 200 243 291 250 228 155
20 287 260 284 293 276 236 264 242 222 236 250 254 245 249 266 267 247 212 185 148 145 145 154 155 162 164 161 156 159 160 159 161 163 170 168 176 198 239 263 289 190 156 140
333 231 277 294 252 262 269 239 239 278 219 228 260 256 261 266 239 187 189 150 141 144 152 156 156 160 159 157 159 157 160 158 165 169 171 178 181 214 229 292 184 161 146 118
71 242 279 264 281 274 290 257 232 231 253 233 266 252 257 265 222 144 164 151 147 149 152 153 155 157 159 160 163 163 166 166 170 175 169 181 202 214 235 200 175 163 153 141
50 336 305 299 240 245 262 297 257 238 233 219 234 263 261 294 282 208 167 144 145 144 147 152 155 157 160 164 166 167 171 170 172 180 175 181 209 220 225 173 131 153 159 152
106 255 230 268 286 308 297 318 322 340 240 235 228 249 249 239 227 251 141 141 145 146 148 151 155 160 163 168 167 170 172 174 172 179 182 192 212 213 172 179 165 163 158 163
145 252 244 272 276 258 269 285 295 310 288 248 235 229 237 253 164 129 144 138 140 145 148 153 158 162 166 169 169 169 175 175 174 186 178 193 190 157 134 135 145 165 162 154
173 263 294 284 267 231 243 271 285 285 282 283 248 251 299 94 133 128 133 141 146 150 151 156 162 165 170 170 171 168 176 175 178 185 181 184 165 159 152 166 161 166 164 166
233 245 308 293 124 108 236 243 254 264 266 264 260 213 284 70 34 306 148 149 152 154 154 160 168 169 172 171 171 171 175 174 179 178 173 168 172 164 156 176 162 165 179 189
249 255 238 271 193 210 267 295 310 279 260 276 274 150 241 111 89 22 145 156 159 156 158 165 171 172 172 171 173 172 175 174 176 180 173 176 171 175 180 189 173 173 170 168
220 222 262 282 299 311 316 30 355 339 306 347 127 117 22 88 81 35 37 122 163 165 166 169 174 172 169 171 174 172 175 174 177 182 180 170 159 172 185 186 183 175 171 161
211 197 155 288 196 284 279 330 329 327 65 346 17 65 2 33 72 296 26 49 109 172 168 169 171 171 170 172 174 174 175 177 178 183 191 178 154 151 163 170 170 153 150 169
168 160 199 241 286 297 342 324 312 175 157 327 43 76 29 354 116 51 44 52 54 152 167 169 171 173 174 174 176 179 178 180 180 177 189 177 157 158 165 156 167 169 171 169
15 306 345 295 116 292 7 333 6 332 314 11 28 39 24 20 47 44 55 63 74 134 162 168 171 172 176 178 178 180 181 178 182 170 178 169 166 169 165 166 157 160 153 159
39 39 324 2 360 336 3 319 353 333 272 34 24 20 15 15 21 28 54 72 47 100 145 154 174 173 178 182 183 181 186 177 182 174 181 175 175 180 180 164 153 156 157 160
296 12 178 166 345 320 324 341 340 351 15 21 16 11 7 10 19 20 26 50 77 103 169 211 185 177 180 185 188 184 184 176 183 180 183 185 190 188 176 167 164 165 162 151
315 312 341 119 355 334 344 353 344 346 7 6 1 5 2 9 17 13 9 22 27 12 137 217 190 185 184 186 186 183 188 181 187 186 187 190 196 192 180 168 175 181 186 190
2 349 11 328 338 335 319 328 323 335 349 356 358 357 356 5 13 14 9 10 5 348 329 166 194 191 183 186 185 184 191 186 194 190 189 193 193 192 187 179 191 205 200 188